Location: Newark
(45.8667°N, 9.7333°E)
Time: 22:51:28
(UTC+00:00)

Vanguard 3 - Pass Details

Date: 25 January 2020
Orbit: 508 x 3263 km, 33.3° (Epoch: 26 February)

Event Time Altitude Azimuth Distance (km) Brightness Sun altitude
Rises 20:19:41 0° 267° (W) 7,199 12.7 -42.1°
Reaches altitude 10° 20:25:03 10° 262° (W) 6,043 12.1 -43.0°
Enters shadow 20:41:03 45° 203° (SSW) 3,072 9.8 -45.6°
Maximum altitude 20:41:33 45° 199° (SSW) 3,034 - -45.6°
Drops below altitude 10° 20:52:12 10° 131° (SE) 3,988 - -47.3°
Sets 20:54:58 0° 124° (SE) 4,654 - -47.8°
